Date,TemperatureHighF,TemperatureAvgF,TemperatureLowF,DewpointHighF,DewpointAvgF,DewpointLowF,HumidityHigh,HumidityAvg,HumidityLow,PressureMaxIn,PressureMinIn,WindSpeedMaxMPH,WindSpeedAvgMPH,GustSpeedMaxMPH,PrecipitationSumIn
2013-9-1,76,74,73,76,73,71,99,96,92,29.73,29.68,3,1,6,0.18
2013-9-2,78,74,71,75,73,69,99,96,91,29.70,29.58,3,0,4,0.01
2013-9-3,77,71,66,74,70,62,100,95,80,29.72,29.57,3,0,9,0.63
2013-9-4,81,68,58,66,61,57,99,81,54,29.83,29.72,6,1,7,0.01
2013-9-5,77,68,60,66,58,47,95,74,42,29.99,29.77,6,1,15,0.00
2013-9-6,72,60,53,55,50,47,87,70,48,30.10,29.99,4,0,9,0.00
2013-9-7,74,62,50,61,54,48,95,74,47,29.99,29.76,5,1,7,0.00
2013-9-8,79,70,60,66,59,47,94,72,37,29.93,29.66,6,1,10,0.00
2013-9-9,70,60,48,56,50,44,91,73,54,30.10,29.93,3,0,5,0.00
2013-9-10,76,69,59,72,66,56,98,92,83,30.04,29.93,6,1,11,0.08
2013-9-11,83,76,70,77,72,70,98,89,73,29.98,29.86,4,1,10,0.00
2013-9-12,78,74,70,74,71,69,99,93,86,29.86,29.55,5,1,14,1.05
2013-9-13,75,68,61,69,65,55,99,89,67,29.66,29.47,6,1,13,0.02
2013-9-14,68,60,54,56,53,50,88,79,60,29.95,29.66,7,1,12,0.00
2013-9-15,67,58,48,56,52,46,97,82,64,30.06,29.95,5,0,6,0.00
2013-9-16,69,62,57,62,57,45,97,85,61,30.07,29.90,5,0,10,0.02
2013-9-17,62,54,46,49,43,40,87,68,50,30.28,30.07,4,1,9,0.00
2013-9-18,68,54,43,52,47,40,98,78,53,30.21,30.05,3,0,6,0.00
2013-9-19,71,60,48,58,53,47,98,81,56,30.06,29.94,4,0,6,0.00
2013-9-20,74,62,51,61,56,50,99,84,56,29.96,29.88,3,0,6,0.00
2013-9-21,75,65,52,69,62,49,99,90,79,29.89,29.57,8,1,9,0.00
2013-9-22,69,64,55,68,58,45,99,83,58,29.74,29.51,8,1,14,1.65
2013-9-23,64,55,50,49,46,43,86,71,53,29.89,29.74,7,1,15,0.00
2013-9-24,67,55,45,55,47,42,93,76,52,29.89,29.72,5,1,12,0.00
2013-9-25,69,56,46,57,50,44,99,81,48,29.80,29.73,3,0,6,0.00
2013-9-26,67,58,51,57,54,49,97,85,63,29.96,29.80,3,0,5,0.00
2013-9-27,65,57,48,57,52,46,97,85,65,30.12,29.96,3,0,5,0.00
2013-9-28,70,59,49,59,54,48,99,84,58,30.18,30.10,3,0,5,0.00
2013-9-29,66,56,48,56,50,45,99,82,47,30.10,29.95,2,0,5,0.00
2013-9-30,68,56,49,58,53,46,99,89,68,29.95,29.84,3,0,6,0.00